Saranac Lake, NY

3:39 AM EDT on July 25, 2017 (GMT -0400)
Adirondack Regional

Weather History for KSLK - November, 2012

Change the Weather History Date:

Sunday, November 25, 2012

  Actual Average Record
Temperature  
Mean Temperature 22 °F 28 °F  
Max Temperature 25 °F 38 °F 59 °F (2001)
Min Temperature 19 °F 19 °F -3 °F (2013)
Degree Days  
Heating Degree Days 43 37  
Month to date heating degree days 852 791  
Since 1 July heating degree days 1945 2083  
Cooling Degree Days 0 0  
Month to date cooling degree days 0  
Year to date cooling degree days 114  
Moisture  
Dew Point 14 °F    
Average Humidity 71    
Maximum Humidity 91    
Minimum Humidity 50    
Precipitation  
Precipitation T in 0.10 in 0.70 in (1979)
Month to date precipitation 0.53 2.81  
Year to date precipitation 30.79 34.69  
Sea Level Pressure  
Sea Level Pressure 29.74 in    
Wind  
Wind Speed 8 mph (WSW)    
Max Wind Speed 15 mph    
Max Gust Speed 28 mph    
Visibility 8 miles    
Events Snow    
T = Trace of Precipitation, MM = Missing Value Source: NWS Daily Summary

Daily Weather History Graph

Daily Weather History Graph

Search for Another Location

Airport or City:

Trip Planner

Search our weather history database for the weather conditions in past years. The results will help you decide how hot, cold, wet, or windy it might be!

Date:

Astronomy

Nov. 25, 2012 Rise Set
Actual Time 7:06 AM EST 4:21 PM EST
Civil Twilight 6:34 AM EST 4:53 PM EST
Nautical Twilight 5:58 AM EST 5:29 PM EST
Astronomical Twilight 5:23 AM EST 6:04 PM EST
Moon 2:40 PM EST 4:13 AM EST
Length of Visible Light 10h 19m
Length of Day
9h 15m
Waxing Gibbous, 93% of the Moon is Illuminated
Nov 25
Waxing Gibbous
Nov 28
Full
Dec 6
Last Quarter
Dec 13
New
Dec 20
First Quarter

Hourly Weather History & Observations

Time (EST) Temp. Windchill Dew Point Humidity Pressure Visibility Wind Dir Wind Speed Gust Speed Precip Events Conditions
1:51 AM 19.9 °F 10.1 °F 12.9 °F 74% 29.74 in 10.0 mi West 8.1 mph 17.3 mph N/A   Overcast
2:51 AM 19.9 °F 9.3 °F 12.9 °F 74% 29.75 in 10.0 mi West 9.2 mph 20.7 mph N/A   Overcast
4:51 AM 19.9 °F 6.7 °F 12.9 °F 74% 29.76 in 10.0 mi West 13.8 mph 24.2 mph N/A   Overcast
5:51 AM 19.9 °F 14.9 °F 12.9 °F 74% 29.75 in 10.0 mi Variable 3.5 mph - N/A   Overcast
6:51 AM 19.0 °F 6.8 °F 12.0 °F 74% 29.77 in 10.0 mi West 11.5 mph 23.0 mph N/A   Overcast
7:51 AM 19.0 °F 9.0 °F 12.9 °F 77% 29.77 in 7.0 mi West 8.1 mph - 0.00 in Snow Light Snow
8:22 AM 19.4 °F 10.4 °F 12.2 °F 74% 29.69 in 1.8 mi West 6.9 mph - 0.00 in Snow Light Snow
8:51 AM 19.0 °F 7.5 °F 12.9 °F 77% 29.77 in 2.5 mi West 10.4 mph 23.0 mph 0.00 in Snow Light Snow
8:58 AM 19.4 °F 7.9 °F 12.2 °F 74% 29.70 in 6.0 mi WSW 10.4 mph 18.4 mph 0.00 in Snow Light Snow
9:51 AM 19.9 °F 7.9 °F 12.0 °F 71% 29.78 in 5.0 mi West 11.5 mph 18.4 mph 0.00 in Snow Light Snow
10:17 AM 19.4 °F 9.5 °F 14.0 °F 80% 29.70 in 2.0 mi West 8.1 mph - 0.00 in Snow Light Snow
10:28 AM 19.4 °F 10.4 °F 12.2 °F 74% 29.70 in 5.0 mi Variable 6.9 mph - 0.00 in Snow Light Snow
10:42 AM 19.4 °F 7.2 °F 14.0 °F 80% 29.70 in 2.5 mi WSW 11.5 mph - 0.00 in Snow Light Snow
10:51 AM 19.9 °F 7.9 °F 14.0 °F 78% 29.76 in 3.0 mi WSW 11.5 mph 18.4 mph 0.00 in Snow Light Snow
11:51 AM 19.9 °F 9.3 °F 12.0 °F 71% 29.75 in 10.0 mi West 9.2 mph 19.6 mph 0.00 in   Overcast
12:31 PM 23.0 °F 15.8 °F 12.2 °F 63% 29.66 in 10.0 mi West 5.8 mph 19.6 mph N/A   Scattered Clouds
12:51 PM 23.0 °F 13.1 °F 12.0 °F 63% 29.73 in 10.0 mi WSW 9.2 mph - N/A   Clear
1:51 PM 25.0 °F 16.3 °F 8.1 °F 49% 29.72 in 10.0 mi WSW 8.1 mph 18.4 mph N/A   Partly Cloudy
2:51 PM 25.0 °F 17.1 °F 10.0 °F 53% 29.72 in 10.0 mi Variable 6.9 mph - N/A   Overcast
3:51 PM 23.0 °F 13.1 °F 12.9 °F 65% 29.74 in 10.0 mi WSW 9.2 mph - N/A   Overcast
4:51 PM 21.0 °F 13.4 °F 15.1 °F 78% 29.75 in 10.0 mi WSW 5.8 mph - N/A   Clear
5:51 PM 21.0 °F 13.4 °F 17.1 °F 85% 29.76 in 10.0 mi WSW 5.8 mph - N/A   Partly Cloudy
6:12 PM 21.2 °F 11.7 °F 17.6 °F 86% 29.70 in 10.0 mi WSW 8.1 mph - N/A   Mostly Cloudy
6:29 PM 21.2 °F 10.9 °F 17.6 °F 86% 29.70 in 10.0 mi WSW 9.2 mph - N/A   Scattered Clouds
6:39 PM 21.2 °F 10.1 °F 17.6 °F 86% 29.70 in 10.0 mi WSW 10.4 mph - N/A   Mostly Cloudy
6:51 PM 21.9 °F 12.5 °F 18.0 °F 85% 29.78 in 10.0 mi WSW 8.1 mph - N/A   Mostly Cloudy
7:40 PM 21.2 °F 10.1 °F 17.6 °F 86% 29.71 in 10.0 mi WSW 10.4 mph - N/A   Scattered Clouds
7:51 PM 21.9 °F 11.7 °F 18.0 °F 85% 29.79 in 10.0 mi WSW 9.2 mph - N/A   Scattered Clouds
8:31 PM 21.2 °F 12.6 °F 17.6 °F 86% 29.72 in 10.0 mi WSW 6.9 mph - N/A   Mostly Cloudy
9:51 PM 21.0 °F 12.4 °F 18.0 °F 88% 29.79 in 10.0 mi WSW 6.9 mph - N/A   Partly Cloudy
10:51 PM 19.9 °F 12.1 °F 18.0 °F 92% 29.80 in 10.0 mi WSW 5.8 mph - N/A   Partly Cloudy
11:51 PM 19.9 °F 11.1 °F 19.0 °F 96% 29.81 in 6.0 mi SW 6.9 mph - N/A   Overcast